Weather History for Window Rock, AZ

Change the Weather History Date:

Monday, January 13, 2014

  Actual Average Record
Temperature  
Mean Temperature 28 °F -  
Max Temperature 48 °F 42 °F 59 °F (1959)
Min Temperature 8 °F 13 °F -29 °F (1963)
Degree Days  
Heating Degree Days 37    
Moisture  
Dew Point 6 °F    
Average Humidity 45    
Maximum Humidity 70    
Minimum Humidity 19    
Precipitation  
Precipitation 0.00 in - - ()
Sea Level Pressure  
Sea Level Pressure 30.34 in    
Wind  
Wind Speed 3 mph (WNW)    
Max Wind Speed 16 mph    
Max Gust Speed -    
Visibility 10 miles    
Events      
Averages and records for this station are not official NWS values.
T = Trace of Precipitation, MM = Missing Value Source: NWS Daily Summary

Daily Weather History Graph

Daily Weather History Graph

Search for Another Location

Airport:

Trip Planner

Search our weather history database for the weather conditions in past years. The results will help you decide how hot, cold, wet, or windy it might be!

Date:

Astronomy

Jan. 13, 2014 Rise Set
Actual Time 7:25 AM MST 5:24 PM MST
Civil Twilight 6:57 AM MST 5:52 PM MST
Nautical Twilight 6:26 AM MST 6:23 PM MST
Astronomical Twilight 5:55 AM MST 6:54 PM MST
Moon 3:41 PM MST (1/13) 5:17 AM MST (1/13)
Length of Visible Light 10h 54m
Length of Day
9h 58m
Waxing Gibbous, 95% of the Moon is Illuminated
Jan 13
Waxing Gibbous
Jan 15
Full
Jan 23
Last Quarter
Jan 30
New
Feb 6
First Quarter

Hourly Weather History & Observations

Time (MST) Temp. Windchill Dew Point Humidity Pressure Visibility Wind Dir Wind Speed Gust Speed Precip Events Conditions
12:53 AM 19.0 °F - 3.9 °F 52% 30.22 in 10.0 mi Calm Calm - N/A   Clear
1:53 AM 16.0 °F - 3.0 °F 57% 30.27 in 10.0 mi Calm Calm - N/A   Clear
2:53 AM 18.0 °F - 3.9 °F 54% 30.28 in 10.0 mi Calm Calm - N/A   Clear
3:53 AM 9.0 °F - 1.0 °F 70% 30.32 in 10.0 mi Calm Calm - N/A   Clear
4:53 AM 10.9 °F 4.7 °F 3.0 °F 70% 30.34 in 10.0 mi SSE 3.5 mph - N/A   Clear
5:53 AM 10.0 °F - 1.9 °F 70% 30.38 in 10.0 mi Calm Calm - N/A   Clear
6:53 AM 8.1 °F - -0.0 °F 70% 30.43 in 10.0 mi Calm Calm - N/A   Clear
7:53 AM 9.0 °F - 1.0 °F 70% 30.44 in 10.0 mi Calm Calm - N/A   Clear
8:53 AM 21.9 °F 15.7 °F 7.0 °F 53% 30.46 in 10.0 mi North 4.6 mph - N/A   Clear
9:53 AM 30.9 °F - 8.1 °F 38% 30.42 in 10.0 mi Calm Calm - N/A   Clear
10:53 AM 39.0 °F 34.8 °F 8.1 °F 28% 30.39 in 10.0 mi Variable 5.8 mph - N/A   Clear
11:53 AM 46.9 °F - 8.1 °F 21% 30.28 in 10.0 mi NW 12.7 mph - N/A   Clear
12:53 PM 48.0 °F - 8.1 °F 20% 30.26 in 10.0 mi NW 9.2 mph - N/A   Clear
1:53 PM 48.0 °F - 7.0 °F 19% 30.26 in 10.0 mi WNW 16.1 mph - N/A   Clear
2:53 PM 46.9 °F - 8.1 °F 21% 30.26 in 10.0 mi West 12.7 mph - N/A   Clear
3:53 PM 46.9 °F - 9.0 °F 21% 30.31 in 10.0 mi WNW 13.8 mph - N/A   Clear
4:53 PM 44.1 °F 37.7 °F 9.0 °F 24% 30.30 in 10.0 mi WNW 12.7 mph - N/A   Clear
5:53 PM 36.0 °F 31.1 °F 9.0 °F 33% 30.35 in 10.0 mi NNW 5.8 mph - N/A   Clear
6:53 PM 33.1 °F - 10.0 °F 38% 30.38 in 10.0 mi Calm Calm - N/A   Clear
7:53 PM 26.1 °F 21.9 °F 8.1 °F 47% 30.43 in 10.0 mi NW 3.5 mph - N/A   Clear
8:53 PM 27.0 °F - 9.0 °F 47% 30.37 in 10.0 mi Calm Calm - N/A   Clear
9:53 PM 24.1 °F 19.7 °F 9.0 °F 53% 30.36 in 10.0 mi South 3.5 mph - N/A   Clear
10:53 PM 23.0 °F 18.4 °F 8.1 °F 53% 30.33 in 10.0 mi Variable 3.5 mph - N/A   Clear
11:53 PM 21.0 °F - 8.1 °F 57% 30.28 in 9.0 mi Calm Calm - N/A   Clear